This is the latest recevied weather packets stored in our database for station/object N2XP-3. If no packets are shown the sender has not sent any weather packets the latest 10 day(s).
| Time | Temp. | Humidity | Pressure | Rain* | Wind** | Luminosity | Snow |
|---|---|---|---|---|---|---|---|
| 1777936305 | 18.33° C | 48% | 1006.5 hPa | 0 mm | 1.34 m/s, 195° | - | - |
| 1777936000 | 18.89° C | 47% | 1006.4 hPa | 0 mm | 0.89 m/s, 271° | - | - |
| 1777935700 | 18.89° C | 47% | 1006.4 hPa | 0 mm | 1.34 m/s, 300° | - | - |
| 1777935398 | 19.44° C | 46% | 1006.4 hPa | 0 mm | 1.34 m/s, 208° | - | - |
| 1777934796 | 19.44° C | 45% | 1006.3 hPa | 0 mm | 1.34 m/s, 201° | - | - |
| 1777934497 | 20° C | 44% | 1006.4 hPa | 0 mm | 0.45 m/s, 280° | - | - |
| 1777934189 | 20° C | 43% | 1006.4 hPa | 0 mm | 0.89 m/s, 329° | - | - |
| 1777933889 | 20.56° C | 42% | 1006.4 hPa | 0 mm | 2.68 m/s, 323° | - | - |
| 1777933632 | 20.56° C | 42% | 1006.4 hPa | 0 mm | 3.13 m/s, 190° | - | - |
| 1777933590 | 20.56° C | 42% | 1006.4 hPa | 0 mm | 3.13 m/s, 190° | - | - |
| 1777933285 | 21.11° C | 42% | 1006.4 hPa | 0 mm | 2.68 m/s, 288° | - | - |
| 1777931460 | 21.11° C | 41% | 1006.5 hPa | 0 mm | 0.45 m/s, 239° | - | - |
| 1777931161 | 21.11° C | 41% | 1006.6 hPa | 0 mm | 1.79 m/s, 225° | - | - |
| 1777930902 | 21.11° C | 40% | 1006.6 hPa | 0 mm | 0.89 m/s, 239° | - | - |
| 1777930858 | 21.11° C | 40% | 1006.6 hPa | 0 mm | 0.89 m/s, 239° | - | - |
| 1777930299 | 21.11° C | 41% | 1006.8 hPa | 0 mm | 1.79 m/s, 236° | - | - |
| 1777930254 | 21.11° C | 41% | 1006.8 hPa | 0 mm | 1.79 m/s, 236° | - | - |
| 1777929650 | 21.67° C | 38% | 1006.8 hPa | 0 mm | 1.79 m/s, 239° | - | - |
| 1777929393 | 22.22° C | 38% | 1006.8 hPa | 0 mm | 0.89 m/s, 249° | - | - |
| 1777929348 | 22.22° C | 38% | 1006.8 hPa | 0 mm | 0.89 m/s, 249° | - | - |
| 1777928746 | 22.22° C | 38% | 1006.8 hPa | 0 mm | 1.79 m/s, 214° | - | - |
| 1777928147 | 22.22° C | 38% | 1006.9 hPa | 0 mm | 1.79 m/s, 312° | - | - |
| 1777927545 | 22.22° C | 39% | 1006.8 hPa | 0 mm | 2.24 m/s, 308° | - | - |
| 1777927344 | 21.67° C | 39% | 1006.8 hPa | 0 mm | 1.79 m/s, 208° | - | - |
| 1777927275 | 21.67° C | 39% | 1006.8 hPa | 0 mm | 1.79 m/s, 208° | - | - |
* Rain latest hour (hover to see other rain measurements)
** Current wind speed in m/s (hover to see current wind gust speed)